Погода в Золотарях

Россия / Волгоградская область     49°45′43″N   46°27′01″E
темп.,
°C
ветер,
м/с
пор.,
м/с
влажн.,
%
обл.,
%
осадки,
мм/ч
давл.,
гПа
погр.,
м
17 июня, чт
чт1700:00+21с34782 0.0 101265
03:00+20с34845 0.0 101252
06:00+21ссв46750 0.0 1013209
09:00+26св56595 0.0 1013709
12:00+30св554793 0.0 10141606
15:00+30св7747100 0.0 10141599
18:00+26св81155100 0.0 1016710
21:00+21св8135546 0.0 1017473
18 июня, пт
пт1800:00+19св9165864 0.0 1017488
03:00+18св715607 0.0 1019516
06:00+18св713672 0.0 1020574
09:00+23всв810519 0.0 10211113
12:00+26всв784164 0.0 10211470
15:00+26всв884086 0.0 10211601
18:00+24св794773 0.0 1022963
21:00+19св713536 0.0 1024467
19 июня, сб
сб1900:00+17всв512533 0.0 1024347
03:00+15св511630 0.0 1025253
06:00+16всв611630 0.0 1026371
09:00+21всв67460 0.0 1026990
12:00+25всв67350 0.0 10251333
15:00+26всв67320 0.0 10241525
18:00+25всв57400 0.0 1023625
21:00+20св48520 0.0 1024137
20 июня, вс
вс2000:00+18св510580 0.0 1023179
03:00+17всв49610 0.0 1024159
06:00+19всв511600 0.0 1024280
09:00+25в68400 0.0 1023728
12:00+30в56310 0.0 10231410
15:00+31в55270 0.0 10211860
18:00+29всв47365 0.0 1021258
21:00+23всв5104957 0.0 1021166
21 июня, пн
пн2100:00+22всв594936 0.0 1021139
03:00+20всв486325 0.0 1021131
06:00+23всв48660 0.0 1021214
09:00+29в45460 0.0 1021970
12:00+32всв44330 0.0 10201948
15:00+33всв44310 0.0 10192226
18:00+31св463953 0.0 1018405
21:00+26св48513 0.0 1019130